DAL414 KATL-KPBI

Flight info

Callsign DAL414
Flight time 1h 17m
Altitude 37000
Route SMLTZ3 WALET DCT ZPLEN VUUDU1
Aircraft A321/M-SDE3FGHIRWY/LB1

Departure

Time 2026-05-06 14:41
Airport Hartsfield Jackson Atlanta International Airport (KATL)

Arrival

Time 2026-05-06 15:58
Airport Palm Beach International Airport (KPBI)
Time Latitude Longitude Altitude Speed Heading
2026-05-06 14:17 33.63828 -84.43201 1006 ft 0 kts 275°
2026-05-06 14:32 33.63826 -84.43176 1006 ft 4 kts 271°
2026-05-06 14:32 33.63830 -84.43146 1006 ft 4 kts 234°
2026-05-06 14:32 33.63849 -84.43130 1006 ft 4 kts 183°
2026-05-06 14:32 33.63855 -84.43130 1006 ft 0 kts 180°
2026-05-06 14:35 33.63802 -84.43130 1006 ft 15 kts 180°
2026-05-06 14:35 33.63692 -84.43112 1006 ft 16 kts 143°
2026-05-06 14:35 33.63664 -84.42996 1006 ft 14 kts 92°
2026-05-06 14:35 33.63664 -84.42882 1006 ft 13 kts 89°
2026-05-06 14:36 33.63661 -84.42769 1006 ft 16 kts 95°
2026-05-06 14:36 33.63655 -84.42644 1007 ft 14 kts 91°
2026-05-06 14:36 33.63655 -84.42530 1007 ft 13 kts 90°
2026-05-06 14:36 33.63655 -84.42426 1007 ft 12 kts 90°
2026-05-06 14:37 33.63655 -84.42326 1007 ft 14 kts 89°
2026-05-06 14:37 33.63655 -84.42182 1007 ft 21 kts 90°
2026-05-06 14:37 33.63655 -84.42001 1007 ft 22 kts 90°
2026-05-06 14:37 33.63656 -84.41824 1006 ft 22 kts 89°
2026-05-06 14:38 33.63655 -84.41651 1006 ft 20 kts 90°
2026-05-06 14:38 33.63655 -84.41489 1006 ft 19 kts 90°
2026-05-06 14:38 33.63655 -84.41335 1006 ft 18 kts 90°
2026-05-06 14:38 33.63655 -84.41193 1006 ft 16 kts 90°
2026-05-06 14:39 33.63655 -84.41057 1006 ft 18 kts 90°
2026-05-06 14:39 33.63654 -84.40882 1006 ft 22 kts 90°
2026-05-06 14:39 33.63617 -84.40751 1007 ft 14 kts 150°
2026-05-06 14:39 33.63524 -84.40744 1007 ft 13 kts 182°
2026-05-06 14:40 33.63472 -84.40809 1007 ft 11 kts 265°
2026-05-06 14:40 33.63471 -84.40916 1007 ft 19 kts 270°
2026-05-06 14:40 33.63470 -84.41380 1007 ft 100 kts 270°
2026-05-06 14:40 33.63471 -84.42506 1023 ft 169 kts 270°
2026-05-06 14:41 33.63488 -84.44016 1548 ft 189 kts 269°
2026-05-06 14:41 33.63513 -84.45639 2310 ft 198 kts 268°
2026-05-06 14:41 33.63555 -84.47294 3203 ft 199 kts 269°
2026-05-06 14:41 33.63569 -84.48963 3804 ft 205 kts 267°
2026-05-06 14:42 33.63545 -84.50770 4127 ft 229 kts 267°
2026-05-06 14:42 33.63514 -84.52759 4646 ft 245 kts 268°
2026-05-06 14:42 33.63489 -84.54835 5377 ft 252 kts 269°
2026-05-06 14:42 33.63474 -84.56943 6219 ft 254 kts 269°
2026-05-06 14:43 33.63465 -84.59072 7011 ft 256 kts 269°
2026-05-06 14:43 33.63425 -84.61215 7795 ft 258 kts 262°
2026-05-06 14:43 33.62840 -84.63230 8593 ft 258 kts 239°
2026-05-06 14:43 33.61578 -84.64768 9387 ft 265 kts 216°
2026-05-06 14:44 33.59804 -84.65496 10137 ft 279 kts 193°
2026-05-06 14:44 33.57852 -84.65670 10815 ft 282 kts 191°
2026-05-06 14:44 33.55878 -84.65810 11444 ft 286 kts 191°
2026-05-06 14:45 33.51876 -84.66083 12712 ft 293 kts 192°
2026-05-06 14:45 33.49828 -84.66228 13469 ft 295 kts 192°
2026-05-06 14:45 33.47767 -84.66377 14246 ft 299 kts 192°
2026-05-06 14:45 33.45671 -84.66530 14911 ft 304 kts 193°
2026-05-06 14:46 33.43512 -84.66425 15552 ft 321 kts 178°
2026-05-06 14:46 33.41333 -84.65531 16050 ft 345 kts 161°
2026-05-06 14:46 33.39317 -84.63728 16176 ft 379 kts 142°
2026-05-06 14:46 33.37398 -84.61441 16311 ft 398 kts 141°
2026-05-06 14:47 33.35411 -84.59065 16666 ft 409 kts 141°
2026-05-06 14:47 33.33389 -84.56642 17175 ft 414 kts 141°
2026-05-06 14:47 33.31366 -84.54228 17719 ft 419 kts 141°
2026-05-06 14:47 33.29286 -84.51765 18257 ft 423 kts 141°
2026-05-06 14:48 33.27177 -84.49286 18728 ft 427 kts 141°
2026-05-06 14:48 33.25046 -84.46786 19185 ft 431 kts 141°
2026-05-06 14:48 33.22894 -84.44264 19642 ft 435 kts 141°
2026-05-06 14:48 33.20723 -84.41717 20091 ft 440 kts 141°
2026-05-06 14:49 33.18537 -84.39146 20542 ft 443 kts 140°
2026-05-06 14:49 33.16332 -84.36549 21018 ft 447 kts 140°
2026-05-06 14:49 33.14104 -84.33934 21458 ft 451 kts 140°
2026-05-06 14:49 33.11854 -84.31294 21893 ft 455 kts 140°
2026-05-06 14:50 33.09588 -84.28639 22335 ft 459 kts 139°
2026-05-06 14:50 33.07335 -84.26004 22795 ft 461 kts 139°
2026-05-06 14:50 33.05037 -84.23319 23225 ft 464 kts 139°
2026-05-06 14:50 33.02713 -84.20628 23702 ft 467 kts 141°
2026-05-06 14:51 33.00167 -84.18236 23940 ft 467 kts 152°
2026-05-06 14:51 32.97348 -84.16344 24230 ft 463 kts 162°
2026-05-06 14:51 32.94356 -84.14979 24582 ft 460 kts 168°
2026-05-06 14:51 32.91322 -84.13747 24951 ft 462 kts 168°
2026-05-06 14:52 32.88278 -84.12503 25325 ft 464 kts 167°
2026-05-06 14:52 32.85224 -84.11250 25714 ft 465 kts 167°
2026-05-06 14:52 32.82162 -84.09988 26093 ft 467 kts 167°
2026-05-06 14:52 32.79128 -84.08733 26452 ft 469 kts 167°
2026-05-06 14:53 32.76039 -84.07454 26828 ft 471 kts 167°
2026-05-06 14:53 32.72938 -84.06175 27103 ft 474 kts 168°
2026-05-06 14:53 32.69807 -84.04891 27371 ft 478 kts 168°
2026-05-06 14:53 32.66655 -84.03603 27695 ft 480 kts 168°
2026-05-06 14:54 32.63488 -84.02307 28036 ft 483 kts 168°
2026-05-06 14:54 32.60306 -84.01005 28380 ft 485 kts 167°
2026-05-06 14:54 32.57111 -83.99698 28721 ft 487 kts 167°
2026-05-06 14:54 32.53903 -83.98384 29050 ft 489 kts 167°
2026-05-06 14:55 32.50685 -83.97067 29370 ft 491 kts 167°
2026-05-06 14:55 32.47449 -83.95746 29669 ft 493 kts 167°
2026-05-06 14:55 32.44237 -83.94441 29841 ft 497 kts 169°
2026-05-06 14:55 32.40952 -83.93110 30053 ft 501 kts 168°
2026-05-06 14:56 32.37640 -83.91767 30279 ft 504 kts 168°
2026-05-06 14:56 32.34317 -83.90442 30510 ft 504 kts 169°
2026-05-06 14:56 32.30973 -83.89185 30790 ft 504 kts 170°
2026-05-06 14:56 32.27611 -83.87986 31059 ft 505 kts 171°
2026-05-06 14:57 32.24233 -83.86815 31332 ft 507 kts 171°
2026-05-06 14:57 32.20849 -83.85649 31688 ft 506 kts 171°
2026-05-06 14:57 32.17474 -83.84476 31987 ft 507 kts 171°
2026-05-06 14:57 32.14087 -83.83283 32253 ft 509 kts 171°
2026-05-06 14:58 32.10740 -83.82091 32560 ft 509 kts 171°
2026-05-06 14:58 32.07352 -83.80872 32915 ft 509 kts 171°
2026-05-06 14:58 32.03967 -83.79649 33278 ft 508 kts 171°
2026-05-06 14:58 32.00590 -83.78428 33642 ft 508 kts 171°
2026-05-06 14:59 31.97209 -83.77214 34001 ft 507 kts 171°
2026-05-06 14:59 31.93839 -83.76011 34325 ft 506 kts 171°
2026-05-06 14:59 31.90468 -83.74814 34635 ft 505 kts 171°
2026-05-06 14:59 31.87111 -83.73623 34953 ft 504 kts 172°
2026-05-06 15:00 31.83756 -83.72433 35277 ft 503 kts 172°
2026-05-06 15:00 31.80414 -83.71247 35604 ft 501 kts 172°
2026-05-06 15:00 31.77124 -83.70080 35934 ft 500 kts 172°
2026-05-06 15:00 31.73802 -83.68904 36265 ft 498 kts 172°
2026-05-06 15:01 31.70489 -83.67734 36587 ft 496 kts 172°
2026-05-06 15:01 31.67187 -83.66556 36905 ft 495 kts 172°
2026-05-06 15:01 31.63896 -83.65334 37057 ft 496 kts 171°
2026-05-06 15:02 31.57274 -83.62764 37105 ft 506 kts 170°
2026-05-06 15:02 31.50571 -83.60128 37123 ft 509 kts 170°
2026-05-06 15:03 31.43844 -83.57529 37126 ft 509 kts 171°
2026-05-06 15:03 31.37151 -83.54983 37128 ft 509 kts 171°
2026-05-06 15:04 31.30422 -83.52429 37119 ft 509 kts 171°
2026-05-06 15:04 31.23680 -83.49865 37093 ft 510 kts 171°
2026-05-06 15:05 31.16929 -83.47298 37083 ft 511 kts 170°
2026-05-06 15:05 31.10171 -83.44727 37075 ft 511 kts 170°
2026-05-06 15:06 31.03452 -83.42177 37065 ft 511 kts 170°
2026-05-06 15:06 30.96687 -83.39614 37071 ft 511 kts 170°
2026-05-06 15:07 30.89916 -83.37054 37102 ft 511 kts 170°
2026-05-06 15:07 30.83146 -83.34501 37113 ft 512 kts 170°
2026-05-06 15:08 30.76373 -83.31948 37088 ft 511 kts 170°
2026-05-06 15:08 30.69645 -83.29193 37104 ft 519 kts 162°
2026-05-06 15:09 30.63098 -83.25651 37108 ft 519 kts 162°
2026-05-06 15:09 30.56589 -83.22140 37100 ft 519 kts 162°
2026-05-06 15:10 30.50033 -83.18616 37100 ft 519 kts 162°
2026-05-06 15:10 30.43476 -83.15107 37105 ft 519 kts 162°
2026-05-06 15:11 30.36912 -83.11591 37092 ft 520 kts 162°
2026-05-06 15:11 30.30346 -83.08079 37093 ft 520 kts 162°
2026-05-06 15:12 30.23771 -83.04568 37094 ft 521 kts 162°
2026-05-06 15:12 30.17195 -83.01053 37083 ft 521 kts 162°
2026-05-06 15:13 30.10666 -82.97568 37093 ft 520 kts 162°
2026-05-06 15:13 30.04088 -82.94074 37108 ft 520 kts 162°
2026-05-06 15:14 29.97510 -82.90581 37116 ft 520 kts 162°
2026-05-06 15:14 29.90931 -82.87089 37087 ft 520 kts 161°
2026-05-06 15:15 29.84361 -82.83604 37115 ft 520 kts 161°
2026-05-06 15:15 29.77789 -82.80129 37124 ft 519 kts 161°
2026-05-06 15:16 29.71263 -82.76693 37137 ft 519 kts 162°
2026-05-06 15:16 29.64693 -82.73229 37130 ft 520 kts 161°
2026-05-06 15:17 29.58120 -82.69762 37106 ft 520 kts 161°
2026-05-06 15:17 29.51547 -82.66307 37122 ft 519 kts 161°
2026-05-06 15:18 29.44973 -82.62857 37130 ft 519 kts 161°
2026-05-06 15:18 29.38446 -82.59432 37130 ft 519 kts 161°
2026-05-06 15:19 29.31876 -82.55993 37100 ft 519 kts 161°
2026-05-06 15:19 29.25241 -82.52868 37120 ft 510 kts 171°
2026-05-06 15:20 29.18356 -82.51391 37130 ft 502 kts 178°
2026-05-06 15:20 29.11464 -82.50152 37134 ft 502 kts 178°
2026-05-06 15:21 29.04571 -82.48900 37138 ft 502 kts 178°
2026-05-06 15:21 28.97682 -82.47647 37124 ft 501 kts 178°
2026-05-06 15:22 28.90844 -82.46418 37127 ft 501 kts 178°
2026-05-06 15:22 28.83963 -82.45176 37131 ft 501 kts 178°
2026-05-06 15:23 28.77086 -82.43928 37149 ft 500 kts 178°
2026-05-06 15:23 28.70210 -82.42688 37137 ft 500 kts 178°
2026-05-06 15:24 28.63348 -82.41455 37136 ft 499 kts 178°
2026-05-06 15:24 28.56485 -82.40228 37148 ft 499 kts 178°
2026-05-06 15:25 28.49671 -82.39005 37138 ft 499 kts 178°
2026-05-06 15:25 28.42809 -82.37770 37120 ft 499 kts 177°
2026-05-06 15:26 28.35941 -82.36545 37126 ft 500 kts 178°
2026-05-06 15:26 28.29074 -82.35318 37135 ft 500 kts 178°
2026-05-06 15:27 28.22205 -82.34091 37143 ft 500 kts 178°
2026-05-06 15:27 28.15339 -82.32869 37128 ft 500 kts 177°
2026-05-06 15:28 28.08471 -82.31643 37127 ft 500 kts 177°
2026-05-06 15:28 28.01668 -82.30194 37132 ft 506 kts 169°
2026-05-06 15:29 27.94918 -82.27902 37129 ft 507 kts 169°
2026-05-06 15:29 27.88159 -82.25609 36944 ft 512 kts 169°
2026-05-06 15:29 27.84740 -82.24460 36099 ft 511 kts 168°
2026-05-06 15:30 27.81368 -82.23320 35595 ft 497 kts 168°
2026-05-06 15:30 27.79193 -82.22579 35240 ft 491 kts 168°
2026-05-06 15:30 27.75929 -82.21469 34443 ft 489 kts 168°
2026-05-06 15:30 27.72674 -82.20368 33402 ft 490 kts 168°
2026-05-06 15:31 27.69413 -82.19272 32467 ft 488 kts 168°
2026-05-06 15:31 27.66157 -82.18180 31357 ft 491 kts 168°
2026-05-06 15:31 27.61851 -82.16734 30612 ft 477 kts 168°
2026-05-06 15:32 27.56589 -82.14973 29730 ft 469 kts 168°
2026-05-06 15:32 27.53470 -82.13950 29215 ft 465 kts 168°
2026-05-06 15:32 27.50417 -82.12954 28698 ft 461 kts 168°
2026-05-06 15:32 27.47348 -82.11952 28182 ft 458 kts 168°
2026-05-06 15:33 27.44300 -82.10953 27664 ft 454 kts 167°
2026-05-06 15:33 27.41279 -82.09963 27182 ft 450 kts 167°
2026-05-06 15:33 27.38284 -82.08980 26697 ft 447 kts 167°
2026-05-06 15:33 27.35309 -82.08005 26221 ft 443 kts 167°
2026-05-06 15:34 27.32364 -82.07036 25917 ft 438 kts 167°
2026-05-06 15:34 27.29434 -82.06062 25830 ft 440 kts 167°
2026-05-06 15:34 27.26501 -82.05081 25741 ft 440 kts 166°
2026-05-06 15:34 27.23567 -82.04095 25639 ft 440 kts 166°
2026-05-06 15:35 27.20638 -82.03112 25553 ft 439 kts 166°
2026-05-06 15:35 27.17711 -82.02129 25466 ft 439 kts 166°
2026-05-06 15:35 27.14788 -82.01149 25378 ft 438 kts 166°
2026-05-06 15:35 27.11907 -82.00186 25294 ft 438 kts 166°
2026-05-06 15:36 27.08990 -81.99215 25209 ft 437 kts 166°
2026-05-06 15:36 27.06141 -81.98011 25120 ft 439 kts 156°
2026-05-06 15:36 27.03513 -81.96260 25029 ft 441 kts 144°
2026-05-06 15:36 27.01190 -81.94025 24711 ft 440 kts 133°
2026-05-06 15:37 26.99214 -81.91426 24373 ft 437 kts 128°
2026-05-06 15:37 26.97295 -81.88800 24038 ft 434 kts 129°
2026-05-06 15:37 26.95380 -81.86198 23695 ft 431 kts 129°
2026-05-06 15:37 26.93473 -81.83621 23317 ft 428 kts 128°
2026-05-06 15:38 26.91571 -81.81060 22997 ft 426 kts 129°
2026-05-06 15:38 26.89682 -81.78516 22658 ft 423 kts 129°
2026-05-06 15:38 26.87808 -81.75988 22326 ft 421 kts 128°
2026-05-06 15:38 26.85946 -81.73472 21990 ft 418 kts 129°
2026-05-06 15:39 26.84083 -81.70984 21708 ft 416 kts 129°
2026-05-06 15:39 26.82239 -81.68556 21413 ft 414 kts 129°
2026-05-06 15:39 26.80370 -81.66117 21117 ft 411 kts 129°
2026-05-06 15:39 26.78510 -81.63695 20808 ft 409 kts 129°
2026-05-06 15:40 26.76660 -81.61284 20519 ft 407 kts 129°
2026-05-06 15:40 26.74822 -81.58884 20236 ft 405 kts 129°
2026-05-06 15:40 26.72996 -81.56496 19933 ft 403 kts 129°
2026-05-06 15:40 26.71205 -81.54096 19650 ft 400 kts 124°
2026-05-06 15:41 26.69808 -81.51440 19371 ft 394 kts 111°
2026-05-06 15:41 26.68957 -81.48560 19091 ft 387 kts 98°
2026-05-06 15:41 26.68653 -81.45599 18630 ft 382 kts 85°
2026-05-06 15:41 26.68899 -81.42676 18111 ft 375 kts 73°
2026-05-06 15:42 26.69550 -81.39889 17719 ft 367 kts 70°
2026-05-06 15:42 26.70199 -81.37165 17122 ft 359 kts 71°
2026-05-06 15:42 26.70815 -81.34508 16692 ft 356 kts 71°
2026-05-06 15:42 26.71433 -81.31826 16262 ft 355 kts 71°
2026-05-06 15:43 26.72049 -81.29162 15837 ft 352 kts 71°
2026-05-06 15:43 26.72662 -81.26520 15446 ft 349 kts 71°
2026-05-06 15:43 26.73272 -81.23906 15024 ft 347 kts 71°
2026-05-06 15:43 26.73877 -81.21314 14699 ft 342 kts 71°
2026-05-06 15:44 26.74473 -81.18764 14538 ft 337 kts 71°
2026-05-06 15:44 26.75064 -81.16234 14324 ft 335 kts 71°
2026-05-06 15:44 26.75652 -81.13712 14112 ft 334 kts 71°
2026-05-06 15:44 26.76232 -81.11206 13890 ft 332 kts 71°
2026-05-06 15:45 26.76808 -81.08714 13660 ft 331 kts 71°
2026-05-06 15:45 26.77383 -81.06226 13445 ft 330 kts 71°
2026-05-06 15:45 26.77958 -81.03746 13234 ft 329 kts 71°
2026-05-06 15:45 26.78511 -81.01299 13020 ft 329 kts 75°
2026-05-06 15:46 26.78768 -80.98742 12620 ft 333 kts 83°
2026-05-06 15:46 26.78888 -80.96151 12132 ft 333 kts 84°
2026-05-06 15:46 26.79000 -80.93562 11679 ft 332 kts 84°
2026-05-06 15:46 26.79106 -80.90991 11236 ft 331 kts 84°
2026-05-06 15:47 26.79212 -80.88434 10900 ft 326 kts 84°
2026-05-06 15:47 26.79316 -80.85909 10453 ft 323 kts 84°
2026-05-06 15:47 26.79418 -80.83434 10225 ft 311 kts 84°
2026-05-06 15:47 26.79517 -80.81065 10008 ft 300 kts 84°
2026-05-06 15:48 26.79614 -80.78756 9739 ft 295 kts 85°
2026-05-06 15:48 26.79590 -80.76468 9428 ft 295 kts 95°
2026-05-06 15:48 26.79086 -80.74278 9109 ft 296 kts 108°
2026-05-06 15:48 26.78364 -80.72129 8774 ft 294 kts 108°
2026-05-06 15:49 26.77647 -80.69990 8441 ft 292 kts 108°
2026-05-06 15:49 26.76937 -80.67867 8114 ft 291 kts 108°
2026-05-06 15:49 26.76233 -80.65755 7786 ft 289 kts 108°
2026-05-06 15:49 26.75535 -80.63659 7465 ft 287 kts 108°
2026-05-06 15:50 26.74843 -80.61573 7142 ft 285 kts 108°
2026-05-06 15:50 26.74155 -80.59500 6823 ft 283 kts 108°
2026-05-06 15:50 26.73466 -80.57443 6505 ft 281 kts 109°
2026-05-06 15:50 26.72764 -80.55409 6176 ft 279 kts 109°
2026-05-06 15:51 26.72067 -80.53422 5856 ft 276 kts 110°
2026-05-06 15:51 26.71367 -80.51438 5548 ft 272 kts 111°
2026-05-06 15:51 26.70679 -80.49486 5239 ft 267 kts 110°
2026-05-06 15:51 26.70074 -80.47546 4951 ft 262 kts 105°
2026-05-06 15:52 26.69755 -80.45513 4328 ft 271 kts 94°
2026-05-06 15:52 26.69673 -80.43423 4022 ft 266 kts 91°
2026-05-06 15:52 26.69610 -80.41392 3869 ft 255 kts 92°
2026-05-06 15:52 26.69533 -80.39456 3777 ft 242 kts 92°
2026-05-06 15:53 26.69456 -80.37639 3661 ft 228 kts 92°
2026-05-06 15:53 26.69385 -80.35923 3559 ft 214 kts 92°
2026-05-06 15:53 26.69317 -80.34290 3464 ft 210 kts 92°
2026-05-06 15:53 26.69249 -80.32677 3268 ft 210 kts 92°
2026-05-06 15:54 26.69181 -80.31056 3116 ft 207 kts 92°
2026-05-06 15:54 26.69114 -80.29446 3031 ft 207 kts 92°
2026-05-06 15:54 26.69047 -80.27847 2918 ft 200 kts 92°
2026-05-06 15:54 26.68984 -80.26369 2718 ft 184 kts 92°
2026-05-06 15:55 26.68926 -80.24974 2501 ft 177 kts 93°
2026-05-06 15:55 26.68868 -80.23619 2277 ft 172 kts 92°
2026-05-06 15:55 26.68811 -80.22290 2054 ft 168 kts 92°
2026-05-06 15:55 26.68756 -80.20987 1842 ft 168 kts 92°
2026-05-06 15:56 26.68701 -80.19698 1620 ft 165 kts 92°
2026-05-06 15:56 26.68647 -80.18432 1412 ft 161 kts 92°
2026-05-06 15:56 26.68595 -80.17210 1210 ft 154 kts 91°
2026-05-06 15:56 26.68545 -80.16049 1008 ft 148 kts 93°
2026-05-06 15:57 26.68497 -80.14897 837 ft 147 kts 93°
2026-05-06 15:57 26.68446 -80.13752 666 ft 148 kts 93°
2026-05-06 15:57 26.68399 -80.12623 439 ft 146 kts 93°
2026-05-06 15:57 26.68353 -80.11489 276 ft 146 kts 94°
2026-05-06 15:58 26.68303 -80.10369 86 ft 142 kts 94°
2026-05-06 15:58 26.68258 -80.09333 30 ft 121 kts 92°
2026-05-06 15:58 26.68230 -80.08745 26 ft 14 kts 88°
2026-05-06 15:58 26.68256 -80.08679 30 ft 15 kts 55°
2026-05-06 15:59 26.68326 -80.08667 27 ft 9 kts 310°
2026-05-06 15:59 26.68340 -80.08738 26 ft 12 kts 272°
2026-05-06 15:59 26.68347 -80.08881 26 ft 23 kts 273°
2026-05-06 15:59 26.68353 -80.09034 26 ft 17 kts 273°
2026-05-06 16:00 26.68419 -80.09102 28 ft 14 kts
2026-05-06 16:00 26.68517 -80.09095 28 ft 14 kts
2026-05-06 16:00 26.68610 -80.09087 31 ft 11 kts 14°
2026-05-06 16:00 26.68641 -80.09019 26 ft 11 kts 90°
2026-05-06 16:01 26.68640 -80.08994 26 ft 0 kts 92°